Regional Weather Roundup
Issued by NWS

Home | Current Version | Previous Version | Graphics & Text | Print | Product List | Glossary On
Versions: 1 2 3 4 5 6 7 8 9 10 11 12 13 14 15 16 17 18 19 20 21 22 23 24 25 26 27 28 29 30 31 32 33 34 35 36 37 38 39 40 41 42 43 44 45 46 47 48 49 50
000
ASUS43 KBIS 240120
RWRND

NORTH DAKOTA REGIONAL WEATHER ROUNDUP
NATIONAL WEATHER SERVICE BISMARCK ND
800 PM CDT WED JUL 23 2014

NOTE: "FAIR" INDICATES FEW OR NO CLOUDS BELOW 12,000 FEET WITH NO
SIGNIFICANT WEATHER AND/OR OBSTRUCTIONS TO VISIBILITY.


NDZ001>003-009>011-017-240200-
NORTHWEST NORTH DAKOTA

CITY           SKY/WX    TMP DP  RH WIND       PRES   REMARKS
WILLISTON      MOSUNNY   85  61  44 SE16G24   30.04F
MINOT          PTSUNNY   74  65  73 E14       30.11F
MINOT AFB      MOSUNNY   74  67  79 E16       30.11F
$$

NDZ018>021-031>035-040>046-240200-
SOUTHWEST NORTH DAKOTA

CITY           SKY/WX    TMP DP  RH WIND       PRES   REMARKS
BISMARCK       SUNNY     80  60  50 SE14      30.12F
DICKINSON      MOSUNNY   78  63  59 SE13      30.06F
GARRISON         N/A     77  65  66 SE10      30.10F
HETTINGER ARPT MOSUNNY   79  59  50 SE20      30.08S
$$

NDZ004>008-012>016-024-026-027-054-240200-
NORTHEAST NORTH DAKOTA

CITY           SKY/WX    TMP DP  RH WIND       PRES   REMARKS
GRAND FORKS    MOSUNNY   73  58  59 N5        30.19F
GRND FRKS AFB  SUNNY     71  60  66 NE6       30.20F
DEVILS LAKE    SUNNY     72  57  60 E9        30.17S
$$

NDZ022-023-025-028>030-036>039-047>053-240200-
SOUTHEAST NORTH DAKOTA

CITY           SKY/WX    TMP DP  RH WIND       PRES   REMARKS
FARGO          SUNNY     75  58  55 NE6       30.19F
JAMESTOWN      MOSUNNY   74  61  63 SE6       30.17F
$$



USA.gov is the U.S. government's official web portal to all federal, state and local government web resources and services.